www.pogodaiklimat.ru

Погода и климат >> Архив погоды >> Гренландия >> Kap Morris Jesup


ПОГОДА Kap Morris Jesup

  • Прогноз погоды Kap Morris Jesup
  • Монитор погоды Kap Morris Jesup

АРХИВ ПОГОДЫ Kap Morris Jesup

Время (UTC), дата Ветер
(напр.,м/с)
 
Видим.   Явления Облачность Т
(С)
Тd
(С)
f
(%)
Тe
(С)
Тes
(С)
Комфортность P
(гПа)
Po
(гПа)
Тmin
(С)
Tmax
(С)
R
(мм)
R24
(мм)
S
(см)
13 19.03 З 3 н/о н/о -41.9 -45.8 66 -54 -54 опасность
обморожения
1007.9 1007.4
14 19.03 СЗ 1 н/о н/о -41.0 -44.9 66 -46 -46 опасность
обморожения
1008.3 1007.8
15 19.03 ЮЗ 1 н/о н/о -40.7 -44.6 66 -43 -43 опасность
обморожения
1008.2 1007.7
16 19.03 С 2 н/о н/о -40.9 -45.1 64 -49 -49 опасность
обморожения
1008.1 1007.6
17 19.03 СЗ 1 н/о н/о -41.0 -44.9 66 -46 -46 опасность
обморожения
1008.4 1007.9
18 19.03 З 2 н/о н/о -40.9 -44.8 66 -49 -49 опасность
обморожения
1008.7 1008.2
19 19.03 СЗ 4 н/о н/о -41.5 -45.1 68 -55 -55 опасность
обморожения
1009.1 1008.6
20 19.03 штиль 0 н/о н/о -41.0 -44.5 69 -41 -41 опасность
обморожения
1009.6 1009.1
21 19.03 З 3 н/о н/о -40.4 -43.9 69 -51 -51 опасность
обморожения
1010.1 1009.6
22 19.03 З 6 н/о н/о -39.8 -43.3 69 -56 -56 опасность
обморожения
1010.5 1010.0
23 19.03 З 4 н/о н/о -39.2 -42.8 68 -53 -53 опасность
обморожения
1010.7 1010.2
00 20.03 З 8 н/о н/о -38.7 -42.4 68 -57 -57 опасность
обморожения
1010.8 1010.3
01 20.03 З 7 н/о н/о -38.4 -42.3 66 -56 -56 опасность
обморожения
1010.9 1010.4
02 20.03 З 7 н/о н/о -38.2 -41.9 68 -55 -55 опасность
обморожения
1011.0 1010.5
03 20.03 З 7 н/о н/о -37.9 -41.6 68 -54 -54 опасность
обморожения
1011.2 1010.7
04 20.03 З 7 н/о н/о -37.8 -41.4 69 -55 -55 опасность
обморожения
1011.0 1010.5
05 20.03 З 7 н/о н/о -37.6 -41.2 69 -55 -55 опасность
обморожения
1010.4 1009.9
06 20.03 СЗ 7 н/о н/о -37.3 -40.9 69 -54 -54 опасность
обморожения
1010.2 1009.7
07 20.03 З 8 н/о н/о -37.4 -41.0 69 -55 -55 опасность
обморожения
1010.0 1009.5
08 20.03 З 8 н/о н/о -37.0 -40.6 69 -54 -54 опасность
обморожения
1009.5 1009.0
09 20.03 З 7 н/о н/о -36.6 -40.1 70 -53 -53 опасность
обморожения
1009.1 1008.6
10 20.03 З 7 н/о н/о -36.2 -39.7 70 -53 -53 опасность
обморожения
1008.3 1007.8
11 20.03 З 9 н/о н/о -35.9 -39.5 69 -54 -54 опасность
обморожения
1007.6 1007.1
12 20.03 З 9 н/о н/о -35.7 -39.3 69 -53 -53 опасность
обморожения
1006.5 1006.0
13 20.03 З 12 н/о н/о -35.7 -39.3 69 -56 -56 опасность
обморожения
1005.6 1005.1
14 20.03 З 12 н/о н/о -35.4 -38.8 71 -55 -55 опасность
обморожения
1004.6 1004.1
15 20.03 З 13 н/о н/о -35.3 -38.7 71 -56 -56 опасность
обморожения
1003.0 1002.5
16 20.03 З 13 н/о н/о -35.2 -38.6 71 -56 -56 опасность
обморожения
1001.8 1001.3
17 20.03 З 12 н/о н/о -35.4 -38.8 71 -56 -56 опасность
обморожения
1000.9 1000.4
18 20.03 З 14 н/о н/о -35.5 -38.9 71 -57 -57 опасность
обморожения
998.8 998.3
19 20.03 З 12 н/о н/о -35.3 -38.7 71 -55 -55 опасность
обморожения
998.2 997.7
20 20.03 З 11 н/о н/о -35.0 -38.4 71 -54 -54 опасность
обморожения
997.4 996.9
21 20.03 З 10 н/о н/о -34.6 -37.9 72 -53 -53 опасность
обморожения
996.3 995.8
22 20.03 З 10 н/о н/о -34.1 -37.4 72 -52 -52 опасность
обморожения
995.3 994.8
23 20.03 0 н/о н/о -33.5 -36.9 71 995.0 994.5
00 21.03 З 8 н/о н/о -32.1 -35.5 72 -48 -48 опасность
обморожения
994.4 993.9
01 21.03 З 10 н/о н/о -31.4 -34.7 73 -49 -49 опасность
обморожения
994.2 993.7
02 21.03 З 10 н/о н/о -30.8 -34.0 73 -48 -48 опасность
обморожения
993.8 993.3
03 21.03 З 10 н/о н/о -29.8 -32.9 74 -47 -47 опасность
обморожения
993.7 993.2
04 21.03 З 12 н/о н/о -29.3 -32.5 74 -47 -47 опасность
обморожения
993.6 993.1
05 21.03 З 11 н/о н/о -28.8 -32.1 73 -46 -46 опасность
обморожения
993.8 993.3
06 21.03 З 11 н/о н/о -28.5 -31.6 75 -45 -45 опасность
обморожения
994.2 993.7
07 21.03 З 10 н/о н/о -28.3 -31.3 75 -45 -45 опасность
обморожения
994.8 994.3
08 21.03 З 10 н/о н/о -27.9 -30.9 75 -44 -44 опасность
обморожения
995.6 995.1
09 21.03 З 9 н/о н/о -27.7 -30.9 74 -43 -43 опасность
обморожения
996.4 995.9
10 21.03 З 8 н/о н/о -27.5 -31.0 72 -42 -42 опасность
обморожения
997.2 996.7
11 21.03 З 7 н/о н/о -27.3 -31.1 70 -41 -41 опасность
обморожения
998.0 997.5
12 21.03 З 7 н/о н/о -27.6 -31.5 69 -42 -42 опасность
обморожения
998.9 998.4
13 21.03 З 7 н/о н/о -27.6 -32.0 66 -41 -41 опасность
обморожения
999.6 999.1
14 21.03 З 6 н/о н/о -28.2 -32.9 64 -41 -41 опасность
обморожения
1000.3 999.8
15 21.03 З 5 н/о н/о -29.1 -33.6 65 -41 -41 опасность
обморожения
1001.0 1000.5
17 21.03 З 3 н/о н/о -29.7 -34.3 64 -39 -39 опасность
обморожения
1002.2 1001.7
18 21.03 З 6 н/о н/о -29.2 -33.8 64 -43 -43 опасность
обморожения
1002.4 1001.9
20 21.03 З 2 н/о н/о -31.0 -35.4 65 -39 -39 опасность
обморожения
1003.6 1003.1
21 21.03 З 4 н/о н/о -30.7 -35.7 61 -41 -41 опасность
обморожения
1003.7 1003.2
23 21.03 З 3 н/о н/о -30.2 -35.4 60 -40 -40 опасность
обморожения
1004.3 1003.8
00 22.03 З 4 н/о н/о -30.1 -35.3 60 -42 -42 опасность
обморожения
1004.8 1004.3
01 22.03 З 8 н/о н/о -28.6 -34.2 58 -43 -43 опасность
обморожения
1004.6 1004.1
02 22.03 З 8 н/о н/о -28.0 -33.5 59 -43 -43 опасность
обморожения
1004.9 1004.4
03 22.03 З 8 н/о н/о -28.3 -33.6 60 -43 -43 опасность
обморожения
1004.5 1004.0
04 22.03 З 8 н/о н/о -28.6 -34.1 59 -44 -44 опасность
обморожения
1004.4 1003.9
05 22.03 З 8 н/о н/о -27.7 -33.2 59 -43 -43 опасность
обморожения
1004.5 1004.0
06 22.03 З 8 н/о н/о -27.8 -33.5 58 -42 -42 опасность
обморожения
1004.9 1004.4
07 22.03 З 8 н/о н/о -27.6 -32.5 63 -42 -42 опасность
обморожения
1005.0 1004.5
08 22.03 З 6 н/о н/о -27.5 -31.6 68 -41 -41 опасность
обморожения
1005.4 1004.9
09 22.03 З 10 н/о н/о -26.7 -30.6 69 -43 -43 опасность
обморожения
1005.4 1004.9
10 22.03 З 8 н/о н/о -26.6 -30.5 69 -41 -41 опасность
обморожения
1005.6 1005.1
11 22.03 З 8 н/о н/о -26.1 -29.8 71 -41 -41 опасность
обморожения
1005.3 1004.8
12 22.03 З 9 н/о н/о -25.3 -28.8 72 -40 -40 опасность
обморожения
1005.3 1004.8
13 22.03 З 10 н/о н/о -24.8 -28.1 74 -40 -40 опасность
обморожения
1005.2 1004.7
14 22.03 З 9 н/о н/о -24.5 -27.8 74 -39 -39 опасность
обморожения
1005.1 1004.6
15 22.03 З 10 н/о н/о -24.3 -27.6 74 -39 -39 опасность
обморожения
1004.9 1004.4
16 22.03 З 11 н/о н/о -24.0 -27.2 75 -40 -40 опасность
обморожения
1004.9 1004.4
17 22.03 З 11 н/о н/о -23.9 -26.9 76 -40 -40 опасность
обморожения
1005.0 1004.5
18 22.03 З 11 н/о н/о -23.8 -26.7 77 -39 -39 опасность
обморожения
1005.4 1004.9
19 22.03 З 11 н/о н/о -23.7 -26.4 78 -39 -39 опасность
обморожения
1005.3 1004.8
20 22.03 З 11 н/о н/о -23.6 -26.5 77 -39 -39 опасность
обморожения
1005.7 1005.2
21 22.03 З 9 н/о н/о -23.5 -26.2 78 -38 -38 опасность
обморожения
1005.9 1005.4
22 22.03 З 11 н/о н/о -23.4 -26.1 78 -39 -39 опасность
обморожения
1006.1 1005.6
23 22.03 З 10 н/о н/о -23.5 -26.1 79 -38 -38 опасность
обморожения
1006.3 1005.8
00 23.03 З 10 н/о н/о -23.8 -26.4 79 -39 -39 опасность
обморожения
1006.4 1005.9
01 23.03 З 11 н/о н/о -23.8 -26.5 78 -39 -39 опасность
обморожения
1006.5 1006.0
02 23.03 З 10 н/о н/о -23.7 -26.4 78 -38 -38 опасность
обморожения
1006.7 1006.2
03 23.03 З 10 н/о н/о -23.9 -26.5 79 -39 -39 опасность
обморожения
1006.8 1006.3
04 23.03 З 9 н/о н/о -24.5 -27.2 78 -39 -39 опасность
обморожения
1006.8 1006.3
05 23.03 З 9 н/о н/о -24.6 -27.3 78 -39 -39 опасность
обморожения
1007.0 1006.5
06 23.03 З 9 н/о н/о -24.4 -27.1 78 -39 -39 опасность
обморожения
1007.0 1006.5
07 23.03 З 8 н/о н/о -24.6 -27.3 78 -39 -39 опасность
обморожения
1007.4 1006.9
08 23.03 З 9 н/о н/о -24.0 -26.7 78 -38 -38 опасность
обморожения
1007.6 1007.1
09 23.03 З 11 н/о н/о -24.0 -26.7 78 -39 -39 опасность
обморожения
1007.8 1007.3
10 23.03 З 9 н/о н/о -23.8 -26.5 78 -38 -38 опасность
обморожения
1007.8 1007.3
11 23.03 З 11 н/о н/о -23.5 -26.4 77 -39 -39 опасность
обморожения
1007.7 1007.2
12 23.03 З 11 н/о н/о -23.4 -26.1 78 -39 -39 опасность
обморожения
1008.3 1007.8
13 23.03 З 12 н/о н/о -23.2 -25.9 78 -39 -39 опасность
обморожения
1008.4 1007.9
14 23.03 З 13 н/о н/о -23.2 -25.9 78 -39 -39 опасность
обморожения
1008.4 1007.9
15 23.03 З 14 н/о н/о -24.2 -27.1 77 -41 -41 опасность
обморожения
1009.1 1008.6
16 23.03 З 13 н/о н/о -24.6 -27.3 78 -41 -41 опасность
обморожения
1009.5 1009.0
17 23.03 З 14 н/о н/о -25.0 -27.8 77 -42 -42 опасность
обморожения
1009.8 1009.3
18 23.03 З 14 н/о н/о -25.3 -28.1 77 -43 -43 опасность
обморожения
1010.5 1010.0
19 23.03 З 15 н/о н/о -26.0 -28.9 76 -44 -44 опасность
обморожения
1011.0 1010.5
20 23.03 З 13 н/о н/о -27.0 -29.9 76 -44 -44 опасность
обморожения
1011.9 1011.4
21 23.03 З 14 н/о н/о -26.8 -29.7 76 -45 -45 опасность
обморожения
1012.6 1012.1
22 23.03 З 14 н/о н/о -26.6 -29.5 76 -44 -44 опасность
обморожения
1013.3 1012.8
23 23.03 З 14 н/о н/о -27.7 -30.6 76 -46 -46 опасность
обморожения
1014.3 1013.8
00 24.03 З 13 н/о н/о -28.5 -31.5 75 -47 -47 опасность
обморожения
1015.4 1014.9
01 24.03 З 13 н/о н/о -29.6 -32.7 74 -48 -48 опасность
обморожения
1016.4 1015.9
02 24.03 З 13 н/о н/о -30.1 -33.2 74 -49 -49 опасность
обморожения
1017.1 1016.6
03 24.03 З 13 н/о н/о -29.0 -32.0 75 -47 -47 опасность
обморожения
1017.6 1017.1
04 24.03 З 11 н/о н/о -28.9 -31.9 75 -46 -46 опасность
обморожения
1018.4 1017.9
05 24.03 З 12 н/о н/о -27.7 -30.6 76 -45 -45 опасность
обморожения
1018.8 1018.3
06 24.03 З 12 н/о н/о -28.7 -31.7 75 -46 -46 опасность
обморожения
1019.9 1019.4
07 24.03 З 11 н/о н/о -27.7 -30.6 76 -45 -45 опасность
обморожения
1020.5 1020.0
08 24.03 З 12 н/о н/о -27.9 -30.9 75 -45 -45 опасность
обморожения
1021.3 1020.8
09 24.03 З 10 н/о н/о -27.6 -30.5 76 -44 -44 опасность
обморожения
1021.8 1021.3
10 24.03 З 12 н/о н/о -26.9 -29.8 76 -44 -44 опасность
обморожения
1022.0 1021.5
11 24.03 З 13 н/о н/о -25.8 -28.7 77 -43 -43 опасность
обморожения
1022.2 1021.7
12 24.03 З 14 н/о н/о -25.5 -28.3 77 -43 -43 опасность
обморожения
1022.3 1021.8
13 24.03 З 11 н/о н/о -25.4 -28.2 77 -42 -42 опасность
обморожения
1022.7 1022.2
14 24.03 З 12 н/о н/о -25.9 -28.8 77 -42 -42 опасность
обморожения
1023.0 1022.5
15 24.03 З 11 н/о н/о -26.7 -29.9 74 -43 -43 опасность
обморожения
1023.3 1022.8
16 24.03 З 12 н/о н/о -27.4 -30.6 74 -45 -45 опасность
обморожения
1023.2 1022.7
17 24.03 З 12 н/о н/о -28.0 -31.2 74 -45 -45 опасность
обморожения
1023.2 1022.7
18 24.03 З 12 н/о н/о -28.2 -31.3 75 -46 -46 опасность
обморожения
1023.1 1022.6
19 24.03 З 13 н/о н/о -28.6 -31.7 75 -47 -47 опасность
обморожения
1022.6 1022.1
20 24.03 З 13 н/о н/о -27.8 -30.8 75 -46 -46 опасность
обморожения
1022.1 1021.6
21 24.03 З 12 н/о н/о -27.9 -30.9 75 -45 -45 опасность
обморожения
1022.4 1021.9
22 24.03 З 11 н/о н/о -28.0 -31.0 75 -45 -45 опасность
обморожения
1022.5 1022.0
23 24.03 З 11 н/о н/о -28.2 -31.2 75 -45 -45 опасность
обморожения
1022.1 1021.6
00 25.03 З 9 н/о н/о -28.3 -31.3 75 -44 -44 опасность
обморожения
1021.8 1021.3
01 25.03 З 9 н/о н/о -28.6 -31.7 75 -44 -44 опасность
обморожения
1021.4 1020.9
02 25.03 З 9 н/о н/о -29.2 -32.3 74 -45 -45 опасность
обморожения
1021.0 1020.5
03 25.03 З 9 н/о н/о -29.3 -32.4 74 -45 -45 опасность
обморожения
1020.4 1019.9
04 25.03 З 9 н/о н/о -29.8 -32.9 74 -46 -46 опасность
обморожения
1019.7 1019.2
05 25.03 З 9 н/о н/о -30.4 -33.5 74 -46 -46 опасность
обморожения
1019.2 1018.7
06 25.03 З 7 н/о н/о -30.7 -33.8 74 -45 -45 опасность
обморожения
1018.8 1018.3
07 25.03 З 4 н/о н/о -31.5 -34.4 75 -43 -43 опасность
обморожения
1018.4 1017.9
08 25.03 З 3 н/о н/о -32.2 -35.2 75 -41 -41 опасность
обморожения
1018.1 1017.6
09 25.03 З 3 н/о н/о -32.0 -35.0 75 -42 -42 опасность
обморожения
1017.3 1016.8
10 25.03 З 4 н/о н/о -32.4 -35.4 74 -44 -44 опасность
обморожения
1016.6 1016.1
11 25.03 З 2 н/о н/о -31.6 -34.6 75 -38 -38 опасность
обморожения
1015.8 1015.3
12 25.03 ЮЗ 2 н/о н/о -32.5 -35.8 72 -39 -39 опасность
обморожения
1015.1 1014.6
13 25.03 Ю 1 н/о н/о -32.8 -36.2 71 -37 -37 опасность
обморожения
1013.9 1013.4
14 25.03 Ю 1 н/о н/о -33.0 -36.5 71 -38 -38 опасность
обморожения
1012.9 1012.4
15 25.03 В 3 н/о н/о -32.6 -35.9 72 -42 -42 опасность
обморожения
1011.8 1011.3
16 25.03 В 3 н/о н/о -32.9 -36.2 72 -43 -43 опасность
обморожения
1010.3 1009.8
17 25.03 ЮВ 2 н/о н/о -32.5 -35.8 72 -41 -41 опасность
обморожения
1009.1 1008.6
18 25.03 СВ 4 н/о н/о -31.7 -34.9 73 -43 -43 опасность
обморожения
1007.6 1007.1
19 25.03 В 4 н/о н/о -32.2 -35.3 74 -44 -44 опасность
обморожения
1006.4 1005.9
20 25.03 В 5 н/о н/о -32.2 -35.3 74 -45 -45 опасность
обморожения
1005.3 1004.8
21 25.03 В 6 н/о н/о -32.2 -35.3 74 -46 -46 опасность
обморожения
1004.4 1003.9
22 25.03 В 7 н/о н/о -32.3 -35.4 74 -47 -47 опасность
обморожения
1002.9 1002.4
23 25.03 В 5 н/о н/о -31.5 -34.5 75 -45 -45 опасность
обморожения
1001.9 1001.4
00 26.03 В 7 н/о н/о -31.3 -34.3 75 -46 -46 опасность
обморожения
1000.8 1000.3
01 26.03 В 6 н/о н/о -30.6 -33.5 76 -45 -45 опасность
обморожения
999.9 999.4
02 26.03 ЮВ 3 н/о н/о -29.8 -32.7 76 -39 -39 опасность
обморожения
999.0 998.5
03 26.03 Ю 1 н/о н/о -29.4 -32.4 75 -34 -34 опасность
обморожения
998.9 998.4
04 26.03 З 4 н/о н/о -31.3 -34.3 75 -42 -42 опасность
обморожения
998.8 998.3
05 26.03 З 5 н/о н/о -30.7 -33.8 74 -43 -43 опасность
обморожения
998.7 998.2
06 26.03 З 7 н/о н/о -33.2 -36.3 74 -48 -48 опасность
обморожения
999.3 998.8
07 26.03 З 7 н/о н/о -34.4 -37.6 73 -50 -50 опасность
обморожения
999.7 999.2
08 26.03 З 6 н/о н/о -35.0 -38.2 72 -50 -50 опасность
обморожения
999.4 998.9
09 26.03 З 5 н/о н/о -35.4 -38.7 72 -49 -49 опасность
обморожения
999.5 999.0
10 26.03 З 6 н/о н/о -35.4 -38.7 72 -50 -50 опасность
обморожения
999.6 999.1
11 26.03 З 7 н/о н/о -35.6 -38.9 72 -51 -51 опасность
обморожения
999.7 999.2

 

Местоположение метеостанции Kap Morris Jesup (Гренландия): широта 83.65 долгота -33.36 высота над уровнем моря 4 м.

В архиве по умолчанию представлена погода Kap Morris Jesup за последнюю неделю. Архивные данные за месяц целиком и за предыдущие месяцы, начиная с января 2011 года, Вы можете получить, выбрав интересующий диапазон дат из раскрывающегося списка и нажав кнопку "Ввод!".


*Определитесь, кто Вы:
робот инопланетянин человек

Внимание! Время в таблицах - всемирное. Для получения местного времени необходимо прибавить поправку, которая равна -3 ч.

Смотрите также архив погоды в соседних городах и на ближайших метеорологических станциях:

Погода Station Nord aws (Гренландия) (327 км)
Погода в Алерте (Нунавут, Канада) (404 км)
Погода Henrik Kroeyer Holm (Гренландия) (443 км)
Погода Danmarkshavn (Гренландия) (808 км)
Погода на Верлегенхукен (Норвегия) (841 км)
Погода в Юрике (Нунавут, Канада) (883 км)
Погода в Юрике (Нунавут, Канада) (884 км)
Погода в Ню-Олесунн (Норвегия) (889 км)
Погода на Острове Карла XII (Норвегия) (898 км)
Погода Mittarfik Qaanaaq (Гренландия) (919 км)

Пояснения к столбцам:

Ветер - указаны скорость ветра в м/с - средняя за 10 мин, порывы в срок и между сроками (в фигурных скобках) и направление, откуда дует ветер: С - северный, СВ - северо-восточный, В - восточный, ЮВ - юго-восточный, Ю - южный, ЮЗ - юго-западный, З - западный, СЗ - северо-западный.
Видимость - горизонтальная дальность видимости в метрах или километрах. При видимости от 1 до 10 км при отсутствии осадков обычно наблюдается дымка, при ухудшении видимости до 1 км и менее - туман. В сухую погоду видимость может ухудшаться дымом, пылью или мглою.
Явления - указаны атмосферные явления, наблюдавшиеся в срок или в последний час перед сроком; фигурными скобками обозначены явления, наблюдавшиеся между сроками (за 1-3 часа до срока); квадратными скобками обозначены град или гололедные отложения с указанием их диаметра в мм.
Облачность - указаны через наклонную черту общая и нижняя облачность в баллах и высота нижней границы облаков в метрах; квадратными скобками обозначены формы облаков: Ci - перистые, Cs - перисто-слоистые, Cc - перисто-кучевые, Ac - высококучевые, As - высокослоистые, Sc - слоисто-кучевые, Ns - слоисто-дождевые, Cu - кучевые, Cb - кучево-дождевые. Подробнее классификацию облаков см. в Атласе облаков (PDF).
T - Температура воздуха - температура, измеренная на высоте 2 м над землей.
Td - Температура точки росы - температура, при понижении до которой содержащийся в воздухе водяной пар достигнет насыщения.
f - Относительная влажность воздуха - влажноcть воздуха, измеренная на высоте 2 м над землей.
Te - Эффективная температура - температура, которую ощущает одетый по сезону человек в тени. Характеристика душности погоды. При расчете учитывается влияние влажности воздуха и скорости ветра на теплоощущения человека.
Tes - Эффективная температура на солнце - температура, которую ощущает человек, с поправкой на солнечный нагрев. Характеристика знойности погоды. Зависит от высоты солнца над горизонтом, облачности и скорости ветра. Ночью, в пасмурную погоду, а также при ветре 12 м/с и более поправка равна нулю.
P - Атмосферное давление - приведенное к уровню моря атмосферное давление.
Po - Атмосферное давление - измеренное на уровне метеостанции атмосферное давление.
Tmin - Минимальная температура - минимум температуры воздуха на высоте 2 м над землей.
Tmax - Максимальная температура - максимум температуры воздуха на высоте 2 м над землей.
R - Количество осадков - Количество выпавших осадков за период времени, мм. При наведении курсора мыши на число - период времени, за который выпало указанное количество осадков.
R24 - Количество осадков - Количество выпавших осадков за 24 часа, мм.
S - Снежный покров - Высота снежного покрова, см. При наведении курсора мыши на число - состояние снежного покрова и степень покрытия местности в баллах.